User: anonymous   Login
Location: Bowman Observatory
(41.0326°N, 73.6210°W)
Time: 00:50:35
(UTC-04:00)
Language:

Cosmos 2298 Rocket - Orbit

View from above orbital plane
View from above orbital plane
View from above satellite
View from above satellite

Ground track
Ground track

The orbit data is extracted from the following two-line orbital elements,

1 23432U 94083B   15181.47290414  .00000017  00000-0  15504-4 0  9992
2 23432 074.0309 170.3512 0005759 204.4839 279.2570 14.33393033 73468
Epoch (UTC): 30 June 2015 11:20:58
Eccentricity: 0.0005759
inclination: 74.0309°
perigee height: 776 km
apogee height: 784 km
right ascension of ascending node: 170.3512°
argument of perigee: 204.4839°
revolutions per day: 14.33393033
mean anomaly at epoch: 279.2570°
orbit number at epoch: 7346

The dashed part of the orbit path shows where the satellite is in the earth's shadow,  

DLR